Location: Lafig�re
(44.4503°N, 4.0357°E)
Time: 16:02:32
(UTC+00:00)

Vanguard 2 Rocket - Pass Details

Date: 20 June 2021
Orbit: 555 x 3325 km, 32.9° (Epoch: 28 July)

Event Time Altitude Azimuth Distance (km) Brightness Sun altitude
Rises 21:01:16 0° 258° (WSW) 7,294 11.9 -12.4°
Reaches altitude 10° 21:06:33 10° 255° (WSW) 6,160 11.4 -13.0°
Maximum altitude 21:24:13 53° 186° (S) 2,913 9.1 -14.8°
Enters shadow 21:35:04 11° 115° (ESE) 3,975 9.7 -15.8°
